Wind_Speed
19 19 18 18 18 18 17 16 16 15 14 14 13 14 14 14 14 13 12 11 11 10 9 9 8 7 5 4 4 5 5 4 4 5 6 6 6 7 6 6 6 6 6 6 6 6 5 6 6 6 6 6 6 6 7 6 7 7 6 5 4 3 2
20 20 19 19 18 18 18 17 16 17 16 16 15 15 15 15 14 14 13 12 11 10 10 9 9 8 7 6 5 5 5 4 4 4 6 6 7 7 7 7 7 6 6 6 6 6 6 6 6 6 6 6 5 6 6 6 6 6 6 6 5 4 3
21 21 20 19 18 17 17 18 18 18 18 18 17 16 16 15 15 15 14 13 13 12 11 10 10 9 8 7 7 6 6 5 4 5 6 7 7 8 8 8 8 7 7 7 7 7 7 6 6 6 6 6 6 6 6 6 6 7 6 6 6 5 5
22 23 22 21 20 19 18 18 19 19 19 19 19 18 17 16 15 15 15 14 14 14 13 11 10 9 9 9 9 8 7 6 6 6 6 7 7 8 8 8 9 9 8 8 8 8 8 8 8 8 8 8 8 8 8 8 8 8 8 7 7 7 7
21 23 24 22 21 20 19 19 19 19 19 20 20 19 18 17 16 15 15 15 15 15 14 13 11 11 10 10 10 9 9 8 8 8 8 8 8 8 8 9 9 9 9 9 9 9 9 8 9 9 9 9 9 9 10 10 10 9 9 9 9 8 8
16 20 23 23 21 20 21 22 21 20 20 21 22 21 20 19 17 16 16 16 16 15 15 14 13 13 13 12 11 10 10 10 10 10 9 9 8 8 8 9 9 10 10 10 10 10 9 9 9 10 10 10 10 10 10 11 11 11 11 11 10 10 10
15 16 20 21 21 22 23 24 23 22 22 22 22 22 22 20 19 18 17 17 16 16 16 15 15 15 15 14 13 12 12 11 11 11 11 10 10 9 9 10 10 10 11 10 10 10 10 10 10 10 10 11 11 11 11 11 11 11 12 12 11 11 11
18 18 20 20 19 21 24 26 24 22 22 23 23 23 22 20 19 18 18 18 17 16 16 16 15 15 15 15 14 14 14 13 12 12 12 12 11 11 11 11 11 11 11 11 11 11 11 11 10 11 11 12 12 12 12 13 13 13 13 12 13 12 12
18 19 20 20 18 18 21 25 25 24 24 23 23 24 23 21 20 19 19 19 18 17 16 15 15 14 14 15 15 15 15 15 14 14 13 13 13 13 13 12 12 12 12 12 12 12 12 12 12 12 13 13 13 13 13 14 14 13 13 13 13 13 12
17 18 19 20 19 17 18 20 21 22 24 24 25 25 24 22 21 20 20 20 19 17 16 16 16 15 14 15 15 15 16 16 16 15 15 15 15 15 14 14 13 13 13 13 13 13 13 14 14 14 14 14 15 15 15 15 14 14 13 14 14 14 13
19 19 20 21 21 21 19 17 16 17 20 24 28 27 25 23 22 21 20 19 19 19 18 17 17 16 15 16 15 15 16 16 16 17 17 16 16 16 16 16 15 15 15 14 14 14 14 14 15 15 16 16 16 16 16 16 15 15 15 15 15 15 14
22 23 23 21 20 22 22 18 17 16 15 19 25 27 26 24 23 22 19 18 19 19 19 19 18 18 17 17 16 16 16 17 17 17 17 18 18 18 18 18 17 17 17 15 16 16 15 15 15 16 17 17 17 17 17 16 16 17 17 17 16 16 15
25 24 26 26 22 21 22 20 19 18 16 15 17 21 23 23 22 22 20 18 17 17 18 19 20 20 19 19 19 19 18 18 18 18 18 18 19 20 20 20 19 19 19 18 18 18 17 17 17 17 17 18 17 17 17 17 18 17 17 17 17 17 16
29 26 25 27 25 22 21 20 20 20 19 17 15 16 19 21 22 21 20 20 19 18 18 19 20 20 20 21 22 22 22 21 21 20 21 20 20 20 21 21 21 21 21 20 20 20 19 19 18 18 18 18 18 18 18 19 19 18 18 18 18 18 18
26 25 24 25 26 25 22 20 21 21 22 21 19 18 19 21 22 22 22 22 20 20 20 20 21 21 21 22 22 23 24 24 24 24 23 23 23 23 22 22 22 21 21 22 22 22 22 21 21 21 20 20 21 20 20 20 19 19 20 20 20 20 20
20 20 21 21 23 25 25 23 22 23 24 23 22 21 20 21 23 23 24 24 23 22 22 22 23 22 22 22 22 24 25 25 26 26 25 25 26 26 25 24 23 22 22 22 23 23 23 23 23 23 23 23 24 23 21 20 20 21 21 21 21 22 22
19 16 17 18 19 20 23 25 27 27 26 25 24 24 24 24 25 25 26 26 25 25 25 25 26 24 22 23 23 24 25 26 27 28 27 28 28 28 28 26 25 25 25 24 23 23 23 24 25 25 24 25 26 25 23 22 23 23 22 22 23 23 23
23 21 21 22 21 20 20 25 31 32 31 29 28 29 29 28 28 28 27 25 24 25 26 28 28 26 24 25 25 26 27 27 28 28 28 29 28 26 25 25 26 27 27 26 26 26 26 26 26 26 26 27 28 27 26 25 26 26 25 25 24 23 24
31 30 29 28 26 24 22 23 26 29 30 30 31 32 33 33 33 31 29 26 23 22 24 26 28 28 27 27 29 30 29 29 30 29 28 27 25 23 23 24 25 25 26 27 28 27 28 28 28 29 28 29 30 28 26 27 28 28 28 28 27 26 26
35 35 34 33 31 30 27 24 24 25 27 27 26 27 28 29 29 27 25 24 23 23 24 27 28 29 28 27 29 30 29 28 29 29 29 27 24 22 25 26 25 25 26 27 28 28 29 29 29 29 30 31 32 29 27 27 29 30 30 30 30 30 29
39 37 35 35 35 35 32 29 27 28 29 28 26 25 25 25 23 21 22 24 25 26 27 29 28 28 26 26 27 28 25 24 25 26 28 29 26 25 26 28 27 27 27 28 29 30 28 26 25 28 30 32 32 29 28 29 30 31 32 31 31 31 31
41 38 35 35 36 37 37 35 34 33 33 31 29 27 28 26 22 22 25 26 27 28 29 29 28 27 28 28 28 28 24 21 22 24 25 26 26 26 27 29 29 29 29 30 32 32 29 26 26 29 31 32 30 29 30 31 33 34 35 34 33 33 33
40 39 37 36 36 36 37 38 38 38 36 35 32 29 30 30 26 25 26 27 29 31 31 29 28 28 28 28 29 29 24 20 20 24 25 25 25 25 26 28 30 31 32 33 34 34 32 29 29 31 33 34 33 33 34 34 35 36 36 36 36 35 34
38 37 35 35 36 37 37 38 39 40 40 39 36 34 35 34 32 32 31 32 33 34 34 32 31 30 29 28 30 31 28 24 23 25 27 27 26 24 23 24 28 31 34 35 36 36 34 32 32 32 33 35 36 37 38 38 40 40 39 38 38 39 38
34 33 32 31 32 36 38 40 41 41 42 41 39 37 37 36 35 35 35 35 36 36 36 35 34 33 32 30 31 32 32 30 27 26 27 28 26 24 22 22 24 28 31 34 36 37 35 34 35 35 34 35 36 36 38 39 40 42 42 42 41 41 40
29 30 30 30 31 33 36 39 41 42 42 41 39 37 36 36 36 37 37 37 37 37 36 36 36 36 34 33 33 33 33 32 31 29 27 26 27 26 25 24 25 26 28 31 33 36 36 35 36 36 34 35 35 36 38 38 37 38 40 41 42 43 42
28 27 29 30 31 34 35 37 39 40 40 40 39 37 37 37 36 37 39 39 38 38 38 38 38 38 37 36 35 34 34 33 33 32 29 27 28 28 27 28 27 27 28 28 29 31 32 33 36 36 34 33 34 35 36 36 36 37 37 38 40 42 44
35 32 32 34 34 36 37 38 39 39 39 40 41 39 37 38 38 39 40 40 39 39 38 38 39 39 39 39 37 36 36 35 34 34 32 30 30 29 29 30 30 30 29 27 27 27 26 27 30 33 33 31 30 31 32 31 31 32 33 35 38 41 43
41 38 36 36 36 37 39 39 39 40 40 41 42 40 39 39 41 41 42 41 40 39 39 39 40 40 41 41 40 39 38 36 35 35 34 33 31 30 31 31 32 32 31 29 29 29 28 27 26 27 29 27 25 25 24 22 23 25 26 28 32 36 39
42 40 37 35 35 37 39 39 39 39 41 42 43 43 43 43 43 43 43 43 42 41 40 40 41 41 42 42 42 41 39 38 37 36 35 34 33 31 30 29 29 30 30 30 30 30 29 29 27 27 28 28 26 24 21 17 19 24 24 23 24 28 32
41 41 40 38 37 38 38 39 40 40 41 42 43 43 44 44 45 45 44 44 44 43 43 42 41 41 41 42 42 41 40 40 39 37 35 34 34 32 30 29 29 30 30 30 30 30 30 30 29 29 30 31 30 30 29 26 25 25 25 22 20 22 27
40 39 37 35 38 42 41 40 41 41 40 41 42 42 43 43 44 45 45 45 45 45 45 44 43 42 42 42 41 41 41 41 40 38 37 36 35 35 34 33 32 31 31 31 31 31 30 29 29 29 31 32 34 34 33 30 27 25 24 21 18 18 21
41 40 37 30 30 36 41 41 41 41 40 41 42 42 43 43 43 43 44 44 45 46 47 46 45 44 43 42 42 42 42 42 41 40 38 36 34 34 33 32 31 30 29 29 30 30 29 28 27 27 27 29 31 31 29 26 24 23 22 21 18 16 15
42 43 45 41 34 32 36 40 41 42 41 42 42 43 44 44 44 44 43 44 45 46 47 47 46 45 45 44 43 43 42 42 41 40 38 36 35 35 33 31 29 29 28 28 28 29 28 27 25 25 25 26 26 27 27 25 24 23 24 23 22 19 18
44 44 49 51 44 35 34 37 40 42 43 43 42 43 44 44 44 43 43 43 44 45 45 45 45 45 45 45 44 43 44 44 42 40 39 38 39 40 38 35 32 30 29 28 28 28 28 27 26 26 27 26 25 25 26 26 25 24 24 25 26 27 27
45 44 47 49 45 38 35 36 37 40 42 43 42 42 43 44 44 43 42 42 43 44 44 44 44 45 45 45 44 45 45 45 43 41 40 40 40 41 40 38 36 34 32 31 30 31 31 30 29 29 29 28 26 26 27 27 27 26 26 26 26 27 28
44 45 46 47 45 42 40 38 38 39 40 41 39 39 39 41 42 43 42 42 43 44 44 43 42 43 44 45 46 47 46 45 44 44 43 42 41 41 39 38 37 36 34 33 32 32 32 31 30 30 30 30 29 29 30 30 31 31 31 31 30 30 29
42 43 44 46 45 45 44 43 42 43 43 42 40 37 36 36 37 40 42 42 42 43 43 43 43 42 42 45 47 47 47 47 47 48 47 46 44 42 41 39 38 37 36 35 34 33 33 32 31 31 31 31 31 31 32 33 33 33 33 33 33 34 34
Wind_Direction
205 209 210 209 210 210 211 214 214 214 214 212 208 205 204 208 210 210 209 206 207 204 201 208 207 201 203 210 211 203 191 184 176 167 170 173 167 165 169 169 168 166 159 153 148 143 137 133 130 130 132 136 140 139 139 142 141 140 144 145 150 156 156
205 206 209 209 210 210 211 216 217 214 214 214 211 208 207 209 211 213 211 210 212 207 201 205 210 209 208 214 220 219 213 204 193 182 180 183 181 178 177 176 179 180 175 170 167 162 157 152 147 147 149 152 154 155 156 159 161 163 168 173 180 192 208
212 209 208 208 209 211 211 215 218 216 216 216 214 212 211 210 211 213 213 213 215 212 204 202 207 209 209 214 220 226 230 224 211 204 199 194 190 189 185 180 183 186 186 185 181 179 178 174 170 170 171 173 176 179 181 182 184 187 191 198 207 216 231
217 215 211 209 208 210 210 213 217 218 217 218 217 216 216 213 211 212 215 215 216 218 212 205 206 206 207 213 219 224 229 228 221 218 219 213 203 198 193 187 188 189 192 196 195 194 191 188 188 188 188 189 192 194 197 201 204 209 213 218 225 233 243
217 219 217 213 210 210 210 211 216 218 219 220 219 219 219 217 213 212 215 215 216 220 219 213 210 209 209 213 217 222 225 227 228 226 229 230 220 211 205 200 198 197 197 200 203 206 203 199 200 202 202 202 204 206 208 212 216 223 229 235 241 248 255
218 220 222 219 215 213 210 210 214 216 218 220 221 221 221 220 217 214 215 216 215 218 220 218 214 213 215 216 216 219 221 223 227 229 232 234 231 226 221 216 212 209 207 208 208 211 213 212 213 214 214 213 215 218 221 224 227 232 238 244 250 256 262
221 219 224 224 221 221 216 213 213 213 216 219 222 223 223 220 218 217 217 217 216 216 218 219 217 216 219 221 220 221 221 222 225 229 232 233 233 235 232 228 225 221 218 217 217 216 217 220 223 226 227 225 225 227 231 234 237 241 245 249 254 258 262
226 221 223 223 223 225 222 216 213 213 215 218 221 224 224 220 217 217 219 219 217 215 216 220 221 219 220 223 225 226 226 226 225 227 230 232 233 235 235 232 231 230 228 226 226 226 225 225 227 232 236 237 237 237 237 239 242 245 249 252 256 258 260
227 222 219 218 217 217 215 213 212 214 217 218 221 224 225 222 218 218 221 221 218 215 216 219 222 222 223 225 226 228 229 229 229 229 230 232 233 235 237 237 236 237 237 236 236 236 235 234 232 234 237 240 242 243 243 243 243 245 247 250 254 256 258
223 221 220 221 220 215 211 210 212 217 221 222 222 224 225 224 222 221 222 223 221 219 217 219 221 221 224 227 228 229 229 230 231 232 232 234 236 238 240 241 242 243 243 243 245 244 242 242 240 238 237 238 240 242 244 245 246 245 245 247 250 251 252
222 223 223 223 223 220 218 216 215 221 228 228 225 223 223 225 226 226 227 226 226 224 222 222 223 222 224 230 233 233 234 233 233 233 234 235 237 239 241 241 242 244 245 247 250 248 246 246 247 246 244 242 240 241 243 245 247 247 246 246 248 250 251
230 228 225 222 221 219 218 219 220 224 233 236 228 222 220 223 227 230 232 230 228 227 226 227 228 227 226 230 235 237 239 239 239 237 236 235 236 238 240 241 242 245 247 247 249 251 249 248 248 248 248 248 245 245 246 246 248 249 248 248 249 250 251
230 231 230 227 222 219 219 221 224 225 229 233 228 220 218 219 224 229 231 231 228 226 226 228 231 232 231 231 235 238 240 242 244 245 243 240 239 239 240 240 241 243 246 246 247 250 251 250 249 248 248 250 251 250 248 248 248 250 251 252 252 252 252
220 223 223 219 214 215 220 222 224 227 228 229 225 221 220 220 221 224 226 229 228 226 225 226 228 232 234 235 237 239 241 242 244 246 248 248 246 244 244 243 241 241 243 245 247 249 250 252 253 251 250 251 252 252 252 253 253 254 253 253 254 254 254
213 213 212 210 208 210 218 224 226 226 227 228 228 226 226 226 226 225 226 228 228 228 229 228 228 230 231 234 238 241 243 245 245 246 248 249 250 249 248 248 248 246 245 245 246 247 248 251 253 254 254 254 253 253 253 255 258 258 257 257 257 258 258
213 213 214 211 207 206 211 219 225 227 227 228 230 231 230 230 230 229 230 230 228 229 232 234 235 234 233 234 236 239 242 244 245 247 247 247 249 250 249 250 252 253 252 250 250 249 249 249 249 252 255 256 256 255 254 254 256 258 260 261 260 260 261
222 228 227 220 215 215 217 218 221 224 226 227 230 233 235 234 232 232 232 233 231 231 232 236 239 240 240 240 240 242 244 244 243 244 245 245 246 247 247 249 251 252 254 254 254 253 253 251 250 250 250 252 254 255 254 255 255 255 256 258 259 260 262
245 250 246 237 232 234 237 230 221 218 221 225 228 231 233 235 235 235 235 235 234 233 233 237 239 239 240 243 245 245 246 246 242 241 242 243 243 247 251 252 253 254 254 255 255 254 254 253 254 253 251 251 252 253 254 255 256 256 256 256 258 260 261
256 256 254 247 239 233 234 232 223 216 218 225 228 228 228 230 232 233 235 236 236 236 237 239 241 240 239 242 246 246 246 247 244 241 243 244 244 250 254 253 253 255 255 256 256 256 256 255 254 255 255 254 254 253 253 254 255 257 257 257 258 259 258
259 256 253 250 244 236 232 231 229 224 221 221 224 224 225 227 229 227 228 231 233 234 235 238 241 242 241 242 245 246 249 253 250 244 244 247 245 244 248 249 248 249 252 254 255 256 256 255 256 256 257 258 258 258 257 257 258 258 258 258 259 258 257
254 252 250 248 246 243 240 238 237 234 230 226 222 221 225 228 229 229 228 228 229 232 234 238 241 244 245 247 249 249 250 256 255 246 243 246 244 240 241 246 247 247 249 251 252 253 251 252 257 260 260 261 262 263 261 259 259 259 258 257 257 257 258
244 242 243 247 247 245 244 244 244 243 241 236 230 227 229 230 229 231 231 230 233 236 239 241 242 245 247 248 251 254 255 254 254 252 249 249 248 244 243 246 249 251 251 250 251 252 250 248 254 260 262 263 264 264 263 261 259 259 258 257 256 255 256
237 234 235 240 242 243 243 244 245 246 244 240 235 232 234 235 236 238 237 237 241 243 243 243 243 245 247 247 249 254 257 253 251 255 258 257 256 254 251 250 250 252 253 253 253 255 255 254 255 257 261 264 265 264 263 262 261 260 259 259 258 256 255
231 226 225 230 235 239 239 240 242 245 245 245 243 240 238 239 244 247 245 243 245 245 246 246 246 247 248 250 253 257 259 255 250 253 258 260 261 261 259 257 255 253 253 254 256 257 259 260 260 259 261 264 265 264 263 262 262 262 261 260 259 258 256
231 222 218 222 230 235 237 238 239 241 243 246 248 247 242 237 239 243 244 243 244 245 246 247 248 249 248 250 254 258 260 258 255 255 257 260 262 263 262 264 262 258 256 256 257 258 259 261 261 260 261 263 265 266 266 266 265 265 264 262 258 257 257
240 228 222 223 227 232 236 238 239 240 242 244 246 247 243 237 235 238 240 242 244 245 246 247 249 250 250 250 253 257 260 262 262 261 261 261 263 264 264 264 263 261 260 259 259 259 259 260 261 261 261 263 265 266 267 268 268 268 269 265 258 256 257
254 244 237 234 233 234 236 239 240 240 241 242 243 244 243 240 237 238 239 240 242 245 246 248 250 252 253 254 255 257 259 262 264 265 264 263 263 263 264 264 263 264 264 264 264 263 263 262 262 263 263 263 266 268 268 269 268 267 269 267 260 257 258
261 259 250 242 238 238 238 239 240 240 241 243 243 243 242 240 239 240 242 243 244 246 248 249 252 254 256 257 257 258 259 260 263 265 266 265 264 263 264 265 265 265 264 264 265 266 267 267 265 265 265 264 265 267 267 269 270 268 267 265 261 259 259
258 260 255 245 240 241 241 242 242 243 243 243 243 242 241 240 240 241 244 245 246 247 249 251 253 254 257 259 259 259 260 261 262 263 264 264 263 263 264 265 265 264 263 263 265 267 268 268 267 267 265 262 262 262 261 267 275 277 276 273 266 260 258
253 255 256 250 244 242 244 245 245 244 243 242 242 242 242 243 243 243 244 245 247 248 249 251 252 253 255 257 258 260 261 262 262 262 263 264 265 265 264 263 263 264 265 266 266 266 265 264 263 262 261 260 262 263 263 268 276 279 284 287 280 268 260
253 254 257 258 252 247 246 245 244 243 242 241 242 243 244 245 246 246 245 246 247 248 249 250 252 253 254 254 256 257 260 261 262 262 261 262 264 264 262 260 261 264 265 265 265 264 265 265 264 262 259 258 260 264 270 275 276 278 283 286 280 270 263
253 252 254 259 257 249 244 243 243 243 243 243 242 243 244 245 245 246 247 247 247 248 249 249 250 251 252 253 254 255 256 258 259 259 259 260 263 264 262 261 261 262 263 264 264 264 265 267 266 264 263 261 261 264 271 274 273 272 274 273 270 269 268
252 247 243 248 253 246 238 238 240 241 242 243 243 243 243 244 244 245 246 247 247 248 249 250 249 249 249 251 252 253 255 256 256 257 257 258 260 261 258 256 256 257 258 260 262 263 263 263 262 262 263 263 264 267 268 267 265 263 260 259 262 266 267
251 248 244 248 256 251 240 236 237 239 240 242 243 243 243 244 244 245 246 246 247 248 249 250 250 250 249 249 249 251 253 254 255 255 254 251 251 252 251 250 252 254 253 254 258 260 258 255 255 258 261 263 265 266 266 265 265 263 256 252 253 255 256
252 250 249 253 259 258 248 241 240 242 244 246 245 245 245 245 246 246 247 247 248 248 249 250 251 251 250 249 248 248 249 250 252 252 250 247 245 246 247 248 250 250 249 249 251 252 250 251 256 260 263 265 264 263 262 263 265 265 260 256 254 255 257
253 253 252 254 258 257 252 247 244 245 247 248 249 249 249 248 248 248 248 248 248 248 249 250 250 250 250 249 248 247 247 248 249 250 248 246 243 243 244 244 244 246 247 246 246 248 251 254 257 258 259 261 260 259 260 261 263 264 263 262 261 260 261
253 253 253 254 255 255 253 251 248 247 247 246 248 251 252 251 251 251 250 250 249 249 249 250 251 251 250 249 248 247 246 247 247 246 245 244 243 243 243 243 242 244 245 245 245 248 252 255 256 256 257 259 259 260 261 262 263 263 263 264 264 264 264
254 253 253 253 254 254 254 253 251 249 248 247 246 248 251 252 252 252 251 250 250 250 249 249 250 251 251 250 249 247 246 246 245 244 244 244 244 243 243 243 243 244 245 246 247 248 250 253 255 256 257 259 260 261 262 262 262 263 264 264 265 265 264
Height
5905 5907 5908 5910 5911 5912 5914 5915 5916 5917 5918 5920 5921 5922 5923 5924 5925 5926 5928 5929 5930 5932 5934 5935 5936 5937 5938 5939 5940 5941 5942 5942 5943 5943 5944 5945 5946 5947 5948 5949 5949 5950 5951 5951 5952 5952 5952 5953 5953 5954 5955 5956 5957 5958 5958 5959 5960 5961 5962 5963 5964 5965 5966
5904 5906 5907 5908 5910 5911 5913 5914 5915 5917 5918 5919 5920 5921 5922 5923 5925 5926 5927 5929 5930 5931 5933 5934 5936 5937 5938 5939 5940 5941 5941 5942 5942 5943 5944 5945 5946 5947 5948 5949 5950 5951 5951 5952 5952 5953 5953 5954 5954 5955 5956 5957 5957 5958 5959 5960 5961 5962 5963 5964 5964 5965 5966
5903 5904 5905 5907 5908 5910 5912 5913 5914 5915 5917 5918 5919 5920 5921 5923 5924 5925 5927 5928 5929 5931 5932 5933 5935 5936 5937 5938 5939 5940 5941 5941 5942 5943 5944 5945 5946 5947 5948 5949 5950 5951 5951 5952 5953 5954 5954 5955 5955 5956 5957 5958 5958 5959 5960 5961 5962 5963 5963 5964 5965 5965 5966
5902 5903 5904 5905 5906 5908 5910 5912 5913 5914 5915 5917 5918 5919 5920 5922 5923 5925 5926 5927 5928 5930 5931 5932 5934 5936 5937 5938 5939 5940 5941 5941 5942 5943 5944 5945 5946 5947 5948 5948 5949 5950 5951 5952 5953 5954 5955 5955 5956 5957 5958 5958 5959 5960 5961 5961 5962 5963 5964 5964 5965 5965 5966
5899 5901 5903 5904 5905 5906 5908 5910 5911 5913 5914 5915 5917 5918 5919 5921 5922 5924 5925 5926 5928 5929 5930 5932 5933 5935 5936 5937 5938 5939 5940 5941 5942 5942 5943 5944 5945 5946 5947 5948 5949 5950 5951 5952 5953 5954 5955 5956 5956 5957 5958 5959 5960 5960 5961 5962 5962 5963 5963 5964 5965 5965 5965
5898 5900 5902 5903 5904 5905 5906 5908 5909 5911 5912 5914 5915 5917 5918 5920 5921 5923 5924 5925 5926 5928 5929 5930 5932 5933 5935 5936 5937 5938 5940 5940 5941 5942 5943 5944 5945 5945 5946 5947 5948 5949 5950 5951 5952 5953 5954 5955 5956 5957 5958 5959 5960 5960 5961 5961 5962 5962 5963 5963 5964 5964 5965
5898 5899 5900 5901 5902 5903 5904 5905 5906 5908 5910 5912 5914 5915 5916 5918 5920 5921 5923 5924 5925 5926 5927 5929 5930 5932 5933 5935 5936 5937 5938 5939 5940 5941 5942 5943 5944 5945 5945 5946 5948 5949 5950 5950 5951 5952 5953 5954 5955 5956 5957 5958 5959 5960 5960 5961 5962 5962 5962 5963 5963 5963 5964
5896 5897 5897 5899 5900 5901 5902 5903 5905 5906 5908 5910 5912 5913 5915 5916 5918 5920 5921 5922 5924 5925 5926 5927 5929 5930 5932 5933 5935 5936 5937 5938 5939 5940 5941 5942 5943 5944 5945 5946 5947 5948 5949 5949 5950 5951 5952 5953 5954 5955 5956 5957 5958 5959 5959 5960 5960 5961 5961 5962 5962 5963 5963
5893 5894 5895 5897 5898 5899 5900 5902 5903 5905 5906 5908 5910 5911 5913 5915 5916 5918 5920 5921 5922 5924 5925 5926 5928 5929 5931 5932 5934 5935 5936 5937 5938 5940 5941 5941 5942 5943 5944 5945 5946 5947 5947 5948 5949 5950 5951 5952 5953 5954 5955 5956 5957 5957 5958 5959 5959 5960 5960 5960 5961 5961 5962
5892 5893 5895 5896 5897 5898 5899 5900 5902 5903 5904 5906 5908 5909 5911 5913 5915 5916 5918 5920 5921 5922 5924 5925 5926 5928 5930 5931 5932 5934 5935 5936 5937 5938 5939 5940 5941 5942 5943 5943 5944 5946 5947 5947 5948 5949 5950 5951 5952 5953 5954 5955 5955 5956 5957 5957 5958 5958 5959 5959 5959 5960 5961
5891 5893 5894 5894 5895 5896 5897 5898 5900 5902 5903 5904 5905 5907 5910 5911 5913 5914 5916 5918 5920 5921 5922 5924 5925 5927 5929 5930 5931 5932 5934 5935 5936 5937 5938 5939 5940 5941 5941 5942 5943 5944 5946 5947 5948 5948 5949 5950 5951 5952 5953 5953 5954 5954 5955 5956 5956 5957 5957 5958 5958 5958 5959
5889 5891 5892 5892 5893 5894 5895 5896 5898 5899 5901 5902 5903 5905 5907 5909 5911 5913 5914 5916 5918 5919 5921 5922 5924 5926 5927 5929 5930 5931 5932 5933 5934 5935 5936 5937 5938 5939 5940 5941 5942 5943 5944 5945 5946 5947 5948 5949 5950 5951 5951 5952 5953 5953 5954 5955 5955 5956 5956 5957 5957 5957 5958
5885 5887 5888 5889 5890 5891 5893 5894 5896 5897 5898 5900 5902 5904 5906 5907 5909 5911 5913 5914 5916 5918 5919 5921 5922 5924 5925 5927 5928 5929 5931 5932 5933 5934 5935 5936 5936 5937 5938 5939 5940 5941 5943 5944 5945 5945 5946 5947 5948 5949 5950 5950 5951 5952 5952 5953 5954 5955 5955 5956 5956 5957 5957
5882 5882 5885 5887 5888 5889 5890 5891 5892 5894 5896 5898 5900 5902 5904 5906 5907 5909 5910 5912 5914 5916 5917 5919 5920 5921 5923 5924 5926 5927 5928 5930 5931 5932 5933 5934 5935 5935 5936 5937 5938 5939 5940 5942 5943 5944 5944 5946 5947 5947 5948 5949 5949 5950 5950 5951 5952 5953 5954 5955 5955 5955 5956
5880 5882 5883 5884 5884 5884 5886 5888 5889 5891 5894 5896 5898 5900 5902 5904 5905 5907 5908 5909 5911 5913 5915 5917 5918 5919 5920 5922 5923 5925 5926 5927 5928 5930 5931 5932 5932 5933 5934 5934 5935 5938 5939 5940 5941 5942 5943 5944 5944 5945 5946 5946 5947 5947 5948 5950 5951 5952 5952 5953 5954 5954 5954
5878 5881 5882 5882 5880 5879 5881 5884 5887 5888 5890 5893 5896 5898 5900 5902 5903 5905 5906 5907 5909 5911 5913 5914 5915 5916 5918 5919 5921 5922 5923 5924 5925 5926 5928 5929 5929 5930 5931 5932 5934 5935 5937 5937 5938 5939 5941 5942 5942 5943 5943 5943 5943 5945 5946 5948 5949 5949 5950 5951 5952 5952 5952
5876 5877 5877 5878 5879 5878 5878 5880 5883 5886 5887 5890 5893 5895 5897 5899 5900 5902 5903 5904 5907 5909 5910 5911 5912 5913 5915 5917 5918 5919 5920 5921 5921 5922 5923 5924 5925 5926 5928 5930 5932 5932 5933 5935 5936 5937 5938 5938 5939 5940 5940 5940 5940 5942 5944 5945 5945 5946 5947 5948 5949 5950 5950
5872 5872 5871 5872 5875 5878 5878 5878 5879 5881 5883 5885 5888 5890 5893 5895 5896 5898 5900 5901 5904 5906 5907 5908 5909 5911 5913 5913 5913 5915 5917 5918 5919 5919 5919 5920 5922 5925 5927 5929 5930 5930 5931 5932 5933 5934 5934 5935 5936 5936 5937 5937 5937 5939 5941 5942 5942 5943 5944 5945 5946 5947 5947
5866 5867 5868 5868 5871 5875 5878 5879 5880 5879 5880 5882 5884 5885 5886 5888 5890 5892 5895 5898 5900 5903 5904 5905 5906 5908 5910 5910 5910 5910 5912 5914 5915 5917 5919 5920 5923 5926 5927 5927 5927 5928 5928 5929 5930 5930 5931 5932 5932 5933 5933 5933 5933 5936 5939 5939 5940 5941 5941 5942 5943 5944 5944
5863 5864 5865 5865 5867 5871 5874 5877 5880 5879 5878 5879 5882 5884 5885 5886 5887 5890 5892 5894 5896 5898 5900 5901 5902 5904 5906 5907 5907 5908 5910 5911 5912 5914 5916 5918 5922 5925 5923 5922 5923 5924 5925 5925 5926 5926 5926 5927 5928 5929 5930 5930 5930 5934 5937 5937 5937 5937 5938 5939 5939 5939 5940
5859 5860 5862 5862 5863 5866 5868 5871 5874 5875 5875 5875 5877 5881 5884 5886 5888 5890 5891 5892 5893 5894 5895 5897 5899 5901 5902 5903 5903 5904 5907 5908 5908 5910 5911 5913 5917 5920 5919 5917 5918 5920 5921 5922 5922 5921 5923 5926 5926 5926 5926 5926 5927 5932 5934 5934 5933 5933 5934 5935 5935 5936 5936
5856 5857 5859 5859 5860 5861 5863 5865 5867 5869 5870 5871 5874 5877 5879 5882 5885 5887 5887 5888 5890 5891 5892 5894 5896 5898 5898 5899 5899 5900 5904 5906 5905 5905 5906 5909 5911 5914 5915 5915 5915 5916 5917 5917 5916 5917 5920 5923 5924 5923 5922 5922 5925 5928 5929 5928 5929 5929 5929 5930 5931 5932 5932
5851 5853 5854 5855 5857 5858 5860 5862 5863 5864 5866 5868 5870 5873 5876 5878 5880 5882 5883 5885 5887 5888 5889 5891 5893 5894 5895 5895 5895 5896 5900 5904 5904 5901 5902 5904 5906 5908 5911 5912 5912 5913 5913 5912 5912 5912 5915 5919 5921 5921 5920 5920 5921 5923 5923 5924 5924 5924 5925 5926 5926 5927 5928
5844 5847 5849 5851 5853 5855 5856 5858 5859 5860 5862 5863 5866 5870 5872 5874 5874 5876 5878 5881 5883 5885 5886 5888 5890 5891 5892 5892 5892 5892 5894 5899 5900 5899 5899 5901 5902 5904 5906 5907 5908 5909 5909 5908 5908 5909 5912 5915 5917 5918 5917 5916 5917 5918 5918 5919 5919 5919 5920 5922 5922 5922 5923
5840 5841 5844 5847 5848 5850 5852 5854 5856 5858 5859 5860 5862 5866 5869 5870 5871 5872 5874 5877 5879 5881 5882 5884 5885 5887 5889 5889 5888 5888 5890 5893 5895 5896 5897 5898 5899 5900 5902 5904 5904 5904 5904 5904 5904 5906 5908 5910 5911 5912 5914 5913 5913 5913 5914 5914 5914 5914 5915 5916 5917 5917 5918
5837 5837 5840 5843 5845 5846 5847 5850 5852 5854 5856 5857 5859 5862 5865 5867 5868 5869 5871 5873 5875 5877 5878 5879 5881 5882 5884 5886 5886 5887 5888 5889 5891 5892 5894 5896 5896 5897 5899 5900 5900 5900 5900 5900 5901 5902 5904 5905 5905 5907 5909 5909 5909 5908 5909 5909 5909 5909 5909 5910 5911 5912 5913
5835 5835 5838 5840 5841 5842 5844 5846 5848 5850 5852 5854 5856 5858 5860 5863 5865 5866 5867 5870 5871 5873 5874 5875 5876 5878 5879 5881 5883 5884 5885 5886 5887 5887 5889 5891 5892 5893 5895 5895 5896 5896 5896 5896 5897 5898 5899 5900 5900 5901 5903 5905 5905 5904 5904 5904 5904 5904 5904 5904 5905 5906 5907
5831 5833 5834 5835 5837 5838 5840 5842 5844 5847 5849 5851 5852 5854 5856 5858 5860 5862 5863 5866 5868 5869 5870 5871 5872 5873 5874 5875 5878 5879 5881 5883 5884 5884 5885 5886 5887 5888 5890 5891 5892 5892 5892 5892 5893 5894 5895 5895 5896 5896 5898 5900 5901 5900 5900 5899 5899 5899 5899 5898 5899 5900 5901
5825 5826 5827 5830 5833 5834 5835 5838 5842 5845 5846 5847 5848 5850 5852 5853 5855 5857 5859 5861 5864 5865 5866 5867 5868 5869 5870 5871 5872 5874 5876 5879 5880 5881 5881 5882 5883 5884 5885 5886 5887 5888 5888 5889 5889 5890 5891 5891 5892 5893 5894 5894 5896 5896 5896 5896 5896 5895 5894 5894 5894 5894 5896
5820 5821 5823 5826 5829 5830 5832 5836 5839 5841 5842 5842 5843 5845 5847 5848 5850 5852 5854 5857 5859 5860 5862 5863 5864 5865 5867 5867 5868 5870 5872 5874 5875 5877 5877 5878 5879 5880 5881 5882 5883 5883 5884 5884 5885 5886 5887 5888 5889 5890 5890 5891 5891 5891 5891 5893 5894 5892 5891 5891 5890 5891 5891
5816 5818 5819 5821 5824 5827 5830 5831 5832 5834 5836 5837 5838 5840 5842 5844 5845 5847 5849 5851 5853 5855 5856 5858 5860 5861 5862 5864 5865 5866 5867 5869 5870 5872 5873 5873 5875 5876 5877 5878 5878 5879 5880 5880 5881 5882 5883 5884 5885 5886 5887 5888 5889 5888 5888 5889 5890 5889 5889 5889 5889 5889 5888
5812 5814 5815 5816 5818 5821 5823 5825 5827 5829 5831 5833 5834 5836 5838 5839 5840 5842 5844 5846 5848 5849 5851 5853 5855 5856 5857 5859 5860 5861 5863 5864 5865 5867 5869 5870 5871 5872 5873 5873 5874 5875 5876 5876 5877 5878 5879 5880 5881 5882 5883 5883 5884 5885 5885 5885 5886 5886 5886 5886 5886 5886 5886
5807 5809 5810 5811 5812 5813 5815 5818 5821 5823 5825 5827 5828 5830 5832 5833 5835 5837 5839 5841 5843 5844 5845 5848 5849 5851 5852 5854 5855 5856 5858 5859 5860 5863 5865 5866 5867 5868 5868 5869 5870 5871 5871 5872 5873 5873 5875 5875 5876 5877 5878 5878 5879 5880 5880 5881 5881 5882 5883 5883 5883 5883 5883
5802 5804 5805 5806 5808 5809 5811 5812 5815 5817 5819 5820 5822 5824 5825 5827 5829 5831 5833 5835 5837 5838 5840 5842 5844 5845 5847 5848 5849 5851 5853 5854 5856 5858 5861 5862 5863 5864 5864 5865 5865 5866 5867 5868 5869 5870 5871 5872 5872 5873 5873 5874 5875 5875 5876 5876 5877 5879 5880 5880 5880 5880 5881
5797 5799 5800 5801 5803 5806 5808 5809 5811 5812 5814 5815 5817 5818 5820 5822 5824 5826 5828 5830 5831 5832 5834 5836 5837 5839 5841 5842 5844 5846 5847 5848 5851 5854 5855 5856 5858 5859 5860 5861 5861 5862 5863 5864 5865 5866 5866 5867 5868 5869 5869 5870 5871 5872 5872 5873 5874 5875 5876 5876 5877 5877 5877
5793 5794 5795 5796 5799 5802 5803 5805 5806 5808 5809 5811 5812 5813 5815 5817 5818 5820 5822 5824 5824 5826 5828 5829 5831 5832 5835 5837 5839 5839 5841 5843 5847 5850 5851 5851 5853 5854 5855 5856 5857 5858 5859 5860 5861 5861 5861 5862 5863 5864 5865 5866 5867 5867 5868 5869 5870 5871 5871 5872 5873 5873 5874
5788 5789 5790 5792 5794 5796 5798 5799 5801 5803 5804 5806 5806 5807 5808 5810 5812 5814 5816 5818 5818 5820 5822 5824 5825 5826 5829 5830 5832 5833 5836 5839 5842 5844 5844 5845 5847 5848 5850 5851 5853 5853 5854 5855 5856 5857 5857 5858 5859 5860 5861 5862 5862 5863 5864 5865 5866 5866 5867 5868 5869 5869 5870
5784 5785 5786 5787 5789 5791 5792 5794 5796 5798 5799 5801 5802 5802 5802 5804 5806 5808 5810 5812 5813 5814 5816 5817 5818 5820 5823 5824 5825 5828 5831 5834 5836 5837 5837 5839 5841 5843 5844 5846 5847 5849 5850 5851 5852 5852 5853 5854 5855 5856 5857 5857 5858 5859 5859 5860 5861 5862 5863 5864 5864 5865 5866